Regional Weather Roundup
Issued by NWS New Orleans/Baton Rouge, LA

Home | Current Version | Previous Version | Text Only | Print | Product List | Glossary On
Versions: 1 2 3 4 5 6 7 8 9 10 11 12 13 14 15 16 17 18 19 20 21 22 23 24 25 26 27 28 29 30 31 32 33 34 35 36 37 38 39 40 41 42 43 44 45 46 47 48 49 50
855
ASUS44 KLIX 171610
RWRLIX
NEW ORLEANS REGIONAL WEATHER ROUNDUP
NATIONAL WEATHER SERVICE NEW ORLEANS LA
1100 AM CDT THU APR 17 2014

NOTE: "FAIR" INDICATES FEW OR NO CLOUDS BELOW 12,000 FEET WITH NO
      SIGNIFICANT WEATHER AND/OR OBSTRUCTIONS TO VISIBILITY.
      SKY/WX - SKY CONDITION AND SIGNIFICANT WEATHER.
      TMP - AIR TEMPERATURE.     DP    - DEWPOINT TEMPERATURE.
      RH  - RELATIVE HUMIDITY.   PRES  - PRESSURE.
      HI  - HEAT INDEX.          WCI   - WIND CHILL INDEX.

*  THESE STATIONS ARE NOT NWS OR FAA STATIONS AND ARE NOT UNDER
   NWS QUALITY CONTROL.

LAZ038-040-048-061>063-065>067-069-171700-
SOUTHEAST LOUISIANA

CITY           SKY/WX    TMP DP  RH WIND       PRES   REMARKS
N.O. AUDUBON     N/A     67  55  65 MISG        N/A
N.O. INTL ARPT CLOUDY    63  55  75 NE9       30.21R
N.O. LAKEFRONT CLOUDY    62  55  77 E10       30.21R
N.O. DOWNTOWN* CLOUDY    63  52  67 E3        30.21R
SLIDELL        CLOUDY    65  54  67 E8        30.19S
BATON ROUGE    PTSUNNY   65  51  60 NE10      30.20R
BOOTHVILLE     MOSUNNY   69  63  81 NE8       30.17R
BELLE CHASSE   PTSUNNY   65  57  75 NE13      30.20R
BOGALUSA*        N/A     64  52  66 E9        30.22S
GALLIANO*      CLOUDY    67  59  75 N12       30.18R
NEW ROADS*     CLOUDY    62  51  66 E10G17    30.21R
GONZALES*      CLOUDY    64  54  70 E7        30.20R
HAMMOND*       CLOUDY    64  52  63 E7        30.23R
HOUMA*         CLOUDY    66  55  68 NE12      30.17R
PORT FOURCHON* CLOUDY    66  59  77 NE9G15    30.19R

$$

MSZ070-080>082-171700-
SOUTHERN MISSISSIPPI

CITY           SKY/WX    TMP DP  RH WIND       PRES   REMARKS
MCCOMB         PTSUNNY   62  51  67 E7        30.22R
GULFPORT       CLOUDY    66  55  67 E17       30.20F
BILOXI         CLOUDY    63  56  76 E16       30.20F
PASCAGOULA     CLOUDY    65  55  70 E12       30.22S
STENNIS ARPT*  CLOUDY    64  54  68 E9G16     30.20S

$$

COASTAL OBSERVATIONS
LAKE AND NEARSHORE STATIONS

STATION/POSITION TIME  TEMP    WIND        PRES    WAVE
                       AIR SEA DIR/SP/G            HT/PER
                 (UTC) (F)     (DEG/KT/KT) (MB)    (FT/S)
PASCAGOULA       1600   62      70/ 17/ 22 1022.5
WAVELAND YACHT   1600   62 64  100/ 18/ 21 1021.5
GRAND ISLE       1600   66 66   70/  8/ 11 1021.6
SOUTHWEST PASS   1600   73 58   70/  5/  6 1021.4
NEW CANAL        1600   60 62   60/ 10/ 11 1022.8
SHELL BEACH      1600   63 61   70/ 20/ 24 1021.3

OFFSHORE STATIONS

STATION/POSITION TIME  TEMP    WIND        PRES    WAVE
                       AIR SEA DIR/SP/G            HT/PER
                 (UTC) (F)     (DEG/KT/KT) (MB)    (FT/S)
64 S DAUPHIN ISL 1543   66 71   70/ 25/ 29 1021.4

$$




USA.gov is the U.S. government's official web portal to all federal, state and local government web resources and services.